Regional Weather Roundup
Issued by NWS

Home | Current Version | Previous Version | Text Only | Print | Product List | Glossary Off
Versions: 1 2 3 4 5 6 7 8 9 10 11 12 13 14 15 16 17 18 19 20 21 22 23 24 25 26 27

000
ASUS45 KTFX 242010
RWRMT
MONTANA REGIONAL WEATHER ROUNDUP
NATIONAL WEATHER SERVICE GREAT FALLS MT
200 PM MDT FRI MAR 24 2017

NOTE: "FAIR" INDICATES FEW OR NO CLOUDS BELOW 12000 FEET WITH NO
SIGNIFICANT WEATHER AND/OR OBSTRUCTIONS TO VISIBILITY.

MTZ001>007-043-242100-
WEST OF THE DIVIDE

CITY           SKY/WX    TMP DP  RH WIND       PRES   REMARKS
KALISPELL      CLOUDY    42  26  53 CALM      29.85F
MISSOULA       PTSUNNY   51  28  41 CALM      29.84F
BUTTE          MOSUNNY   51  19  28 S18G31    29.93S
MULLAN PASS    SNOW      32  30  92 VRB6      29.81F VSB 1/2 WCI  26
ANACONDA         N/A     55  19  24 S9        29.87F
DEER LODGE       N/A     57  19  23 S20G29    29.87F
EUREKA           N/A     39  27  60 CALM      29.85F
HAMILTON         N/A     59  18  20 CALM      29.82F
PLAINS           N/A     53  30  41 CALM      29.86F
RONAN            N/A     45  29  53 NW5       29.90F
$$

MTZ008-052>055-242100-
SOUTHWEST MONTANA

CITY           SKY/WX    TMP DP  RH WIND       PRES   REMARKS
BOZEMAN        SUNNY     62  18  18 S8G26     29.91F
DILLON         MOSUNNY   53  20  27 S21G37    29.94F
W YELLOWSTONE  SUNNY     39  21  48 S14G31    30.11F WCI  31
ENNIS          SUNNY     54  18  24 S33G46    30.01F
THREE FORKS      N/A     59  59 100 S22       29.91F
TWIN BRIDGES     N/A     57  16  20 S16       29.94F
$$

MTZ009-010-012-014-046-048-049-054-242100-
EAST SLOPES AND CENTRAL MONTANA

CITY           SKY/WX    TMP DP  RH WIND       PRES   REMARKS
CUT BANK       MOSUNNY   55  16  21 S10G23    29.79F
GREAT FALLS    SUNNY     62  14  15 S17G24    29.83F
MALMSTROM AFB  CLOUDY    62  19  18 S23G32    29.83F
HELENA         SUNNY     61  17  18 S22G30    29.84F
AUGUSTA          N/A     58  14  18 S18       29.80F
BOWMANS CRNR     N/A     55  19  24 S25G32    29.80F
CHOTEAU          N/A     57  18  21 S14G25    29.82F
CONRAD           N/A     58  24  27 SE14      29.85F
FAIRFIELD        N/A     57  14  18 S22G29    29.80F
POWER            N/A     58  13  17 SW21G28   29.82F
RAYNESFORD       N/A     60  14  16 S6        29.83F
$$

MTZ011-013-016-021-045-047-050-051-242100-
NORTH CENTRAL MONTANA

CITY           SKY/WX    TMP DP  RH WIND       PRES   REMARKS
HAVRE          PTSUNNY   58  25  28 VRB3      29.86F
LEWISTOWN      SUNNY     62   9  12 SW17      29.90F
N BAR RANCH      N/A     57  25  28 S21G28    29.96F
CHINOOK          N/A     63  21  20 S13       29.86F
DENTON         PTSUNNY   61  22  22 SE25G36   29.84F
FORT BENTON      N/A     63  21  20 MISG      29.85
GEYSER           N/A     60  15  17 NW5       29.84F
GRASS RANGE      N/A     60  22  22 S20       29.87F
STANFORD         N/A     58  17  20 S18G26    29.86F
WINIFRED         N/A     60  13  15 S14       29.87F
$$

MTZ017>020-022>027-061-062-242100-
NORTHEAST MONTANA

CITY           SKY/WX    TMP DP  RH WIND       PRES   REMARKS
GLASGOW        SUNNY     61  30  31 SE15G22   29.96F
JORDAN           N/A     63  28  26 S20G26    29.97F
SIDNEY         SUNNY     62  30  29 VRB6      30.04
WOLF POINT     SUNNY     63  37  38 NE9       30.00F
MALTA          SUNNY     59  32  36 S20       29.91F
PLENTYWOOD       N/A     55  39  54 SE14      30.04F
POPLAR           N/A     61  30  31 E3        30.02F VSB 3/4
SCOBEY           N/A     60  31  33 SE6       29.98F
$$

MTZ028>42-056>058-242100-
SOUTHCENTRAL AND SOUTHEAST MONTANA

CITY           SKY/WX    TMP DP  RH WIND       PRES   REMARKS
BAKER          SUNNY     60  26  27 S10       30.07F
BILLINGS       MOSUNNY   63  28  26 SE10G21   29.96F
LIVINGSTON     SUNNY     61  19  19 SW23G31   29.93F
MILES CITY     SUNNY     63  29  27 S10G18    30.02F
BIG TIMBER     SUNNY     57  27  30 SE7       29.97F
EKALAKA          N/A     58  24  27 CALM      30.05F
FORSYTH          N/A     63  30  29 S10G22    30.01F
HARLOWTON        N/A     59  20  21 S21G28    29.91F
LAUREL           N/A     62  24  23 S18       29.96F
$$

REGIONAL REPORTS...DAKOTAS

CITY           SKY/WX    TMP DP  RH WIND       PRES   REMARKS
WILLISTON      SUNNY     55  32  41 SE10      30.08F
MINOT          SUNNY     40  29  64 E15       30.18F
DICKINSON      SUNNY     55  33  43 SE8       30.08F
BEACH            N/A    N/A N/A N/A MISG        N/A
TIOGA            N/A     45  41  87 SE14      30.12F
WATFORD CITY     N/A     54  37  54 SE13      30.08F
BISMARCK       SUNNY     45  32  60 NE6       30.17F
GRAND FORKS    CLOUDY    36  28  73 N14       30.22S WCI  27
FARGO          CLOUDY    38  32  79 N15       30.18F WCI  29
BUFFALO SD       N/A     57  32  38 VRB5      30.03F
RAPID CITY     MOSUNNY   60  33  36 N9        30.08F
$$

REGIONAL REPORTS...WYOMING/IDAHO/WASHINGTON

CITY           SKY/WX    TMP DP  RH WIND       PRES   REMARKS
GILLETTE       SUNNY     55  30  38 SW7       30.09F
SHERIDAN       SUNNY     60  31  33 SE14G23   30.03F
BUFFALO WY     SUNNY     58  31  35 SE14G20   30.05F
CODY           SUNNY     57  19  22 VRB7G16   30.04F
YELLOWSTONE LA   N/A     41  17  38 VRB5      30.14F
IDAHO FALLS    SUNNY     55  22  27 SW13G22   30.11F
SALMON         CLOUDY    59  23  25 SW25      29.88F
BOISE          LGT RAIN  48  41  76 E26G35    29.99F
SPOKANE        LGT RAIN  44  39  82 S10       29.83F
$$

REGIONAL REPORTS...ALBERTA

CITY           SKY/WX    TMP DP  RH WIND       PRES   REMARKS
EDMONTON       MOSUNNY   34  28  80 SE16      29.77F WCI  23
CALGARY        CLOUDY    54  21  28 S18G26    29.67F
LETHBRIDGE     CLOUDY    55  21  26 S9G24     29.75F
MEDICINE HAT   CLOUDY    57  21  24 S14       29.81F
WATERTON GATE    N/A     50  23  34 SW20G29     N/A
CARDSTON         N/A     54  21  28 SW7         N/A
MILK RIVER       N/A     52  25  35 S22G28      N/A
ONEFOUR          N/A     54  21  28 S15G23      N/A
$$

REGIONAL REPORTS...SASKATCHEWAN

CITY           SKY/WX    TMP DP  RH WIND       PRES   REMARKS
SWIFT CURRENT  SUNNY     54  30  40 S16       29.89F
REGINA         PTSUNNY   41  32  70 SE21      30.05F
SASKATOON      PTSUNNY   41  27  56 E13       30.02F
CYPRESS HILLS    N/A     46  21  36 S16G22      N/A
VAL MARIE        N/A     55  28  35 S17G24      N/A
ASSINIBOIA       N/A     30  27  86 E10         N/A  WCI  21
$$




USA.gov is the U.S. government's official web portal to all federal, state and local government web resources and services.